Total_Precipitation_Accumulation
0.28 0.31 0.35 0.59 0.64 0.55 0.58 0.58 0.66 0.60 0.63 0.71 0.79 0.87 0.85 0.85 0.78 0.71 0.70 0.67 0.63 0.59 0.58 0.60 0.65 0.73 0.88 1.20 1.47 1.50 1.48 1.33 1.23 1.22 1.22 1.21 1.22 1.21 1.10 0.97 0.91 0.89 0.96 1.03
0.24 0.24 0.26 0.30 0.26 0.27 0.31 0.36 0.43 0.50 0.60 0.64 0.70 0.70 0.75 0.74 0.60 0.58 0.60 0.60 0.59 0.54 0.50 0.48 0.49 0.56 0.68 0.88 1.10 1.23 1.27 1.19 1.07 1.08 1.07 1.03 1.12 1.21 1.22 1.07 0.98 0.90 0.89 0.87
0.32 0.25 0.28 0.28 0.23 0.32 0.39 0.40 0.42 0.54 0.69 0.72 0.75 0.78 1.08 1.09 0.78 0.64 0.65 0.60 0.61 0.59 0.55 0.55 0.54 0.54 0.56 0.65 0.81 0.94 1.00 0.97 0.86 0.89 1.02 1.06 1.14 1.16 1.07 1.00 1.01 0.98 0.87 0.78
0.40 0.39 0.49 0.31 0.21 0.30 0.37 0.40 0.39 0.42 0.44 0.51 0.61 0.70 0.85 0.92 0.80 0.68 0.66 0.59 0.58 0.55 0.50 0.51 0.53 0.54 0.57 0.59 0.64 0.71 0.74 0.75 0.71 0.75 0.92 0.99 0.96 0.94 0.87 0.86 0.90 0.96 0.90 0.85
0.50 0.61 0.50 0.24 0.19 0.24 0.28 0.31 0.29 0.32 0.29 0.30 0.33 0.31 0.30 0.32 0.36 0.39 0.37 0.35 0.38 0.41 0.38 0.37 0.39 0.44 0.45 0.43 0.48 0.50 0.52 0.58 0.68 0.70 0.72 0.75 0.73 0.73 0.78 0.84 0.84 0.77 0.80 0.94
0.55 0.65 0.55 0.29 0.18 0.16 0.22 0.36 0.25 0.25 0.24 0.24 0.25 0.30 0.25 0.25 0.20 0.16 0.17 0.19 0.27 0.37 0.39 0.35 0.35 0.41 0.41 0.41 0.44 0.45 0.48 0.55 0.63 0.69 0.71 0.73 0.75 0.77 0.80 0.82 0.85 0.85 0.87 0.97
0.48 0.62 0.42 0.21 0.17 0.18 0.36 0.38 0.19 0.15 0.14 0.15 0.19 0.23 0.20 0.22 0.19 0.15 0.17 0.19 0.24 0.30 0.38 0.37 0.38 0.39 0.40 0.42 0.45 0.52 0.55 0.55 0.59 0.66 0.72 0.75 0.83 0.86 0.87 0.88 0.90 0.93 0.93 0.93
0.42 0.55 0.44 0.18 0.18 0.29 0.33 0.20 0.15 0.13 0.12 0.13 0.15 0.16 0.15 0.15 0.17 0.14 0.15 0.17 0.21 0.26 0.36 0.40 0.42 0.43 0.46 0.46 0.47 0.54 0.57 0.56 0.58 0.65 0.72 0.77 0.89 0.95 0.96 0.97 0.96 0.96 0.98 1.01
0.43 0.41 0.28 0.20 0.20 0.21 0.21 0.19 0.15 0.14 0.13 0.12 0.13 0.14 0.14 0.15 0.18 0.13 0.13 0.18 0.21 0.24 0.32 0.39 0.43 0.48 0.51 0.51 0.50 0.53 0.55 0.60 0.62 0.67 0.71 0.74 0.81 0.90 0.98 1.02 1.02 1.01 1.01 1.04
0.30 0.22 0.17 0.18 0.19 0.17 0.16 0.16 0.16 0.17 0.17 0.17 0.16 0.16 0.16 0.17 0.18 0.16 0.14 0.14 0.17 0.21 0.27 0.35 0.41 0.44 0.52 0.54 0.54 0.57 0.60 0.68 0.72 0.74 0.77 0.78 0.84 0.89 0.95 1.00 1.02 0.99 0.97 1.03
0.26 0.17 0.13 0.14 0.17 0.19 0.17 0.16 0.16 0.16 0.18 0.18 0.18 0.17 0.16 0.15 0.16 0.16 0.17 0.17 0.16 0.19 0.23 0.29 0.36 0.41 0.48 0.55 0.61 0.62 0.64 0.72 0.80 0.81 0.81 0.82 0.83 0.86 0.87 0.89 0.97 0.97 0.95 0.98
0.23 0.16 0.16 0.14 0.14 0.18 0.21 0.19 0.17 0.15 0.14 0.15 0.16 0.16 0.15 0.15 0.17 0.18 0.18 0.20 0.20 0.20 0.21 0.24 0.29 0.34 0.39 0.44 0.54 0.63 0.70 0.73 0.75 0.82 0.85 0.82 0.80 0.80 0.85 0.88 0.95 0.94 0.91 0.93
0.13 0.12 0.11 0.12 0.13 0.15 0.17 0.17 0.15 0.12 0.13 0.14 0.16 0.16 0.16 0.17 0.18 0.18 0.19 0.20 0.22 0.22 0.21 0.21 0.23 0.27 0.32 0.37 0.45 0.55 0.62 0.68 0.71 0.73 0.76 0.79 0.80 0.79 0.82 0.82 0.85 0.88 0.89 0.92
0.08 0.09 0.11 0.11 0.13 0.12 0.13 0.15 0.13 0.13 0.13 0.14 0.17 0.19 0.21 0.22 0.22 0.21 0.22 0.21 0.23 0.22 0.22 0.21 0.22 0.25 0.30 0.35 0.41 0.47 0.56 0.69 0.72 0.70 0.73 0.77 0.81 0.81 0.82 0.86 0.90 0.83 0.83 0.87
0.07 0.08 0.10 0.10 0.10 0.10 0.11 0.13 0.15 0.16 0.17 0.16 0.16 0.20 0.23 0.23 0.24 0.25 0.25 0.24 0.22 0.22 0.25 0.27 0.28 0.29 0.31 0.35 0.38 0.41 0.49 0.60 0.68 0.71 0.73 0.77 0.82 0.84 0.84 0.85 0.90 0.91 0.88 0.87
0.11 0.08 0.08 0.09 0.09 0.10 0.12 0.16 0.19 0.21 0.21 0.21 0.21 0.23 0.25 0.25 0.26 0.27 0.30 0.28 0.27 0.28 0.29 0.30 0.31 0.33 0.36 0.36 0.38 0.40 0.47 0.61 0.68 0.72 0.72 0.74 0.80 0.83 0.84 0.81 0.80 0.82 0.83 0.83
0.19 0.17 0.14 0.14 0.13 0.12 0.11 0.14 0.18 0.22 0.23 0.24 0.25 0.26 0.26 0.25 0.26 0.27 0.30 0.32 0.32 0.30 0.30 0.30 0.31 0.34 0.36 0.37 0.37 0.38 0.44 0.55 0.66 0.70 0.70 0.71 0.73 0.75 0.79 0.82 0.83 0.81 0.81 0.89
0.21 0.21 0.19 0.18 0.16 0.13 0.12 0.12 0.15 0.20 0.22 0.22 0.23 0.24 0.25 0.27 0.27 0.28 0.30 0.30 0.32 0.31 0.30 0.30 0.31 0.33 0.34 0.34 0.34 0.37 0.43 0.50 0.57 0.64 0.75 0.77 0.73 0.70 0.71 0.74 0.79 0.81 0.79 0.84
0.17 0.17 0.16 0.15 0.14 0.14 0.14 0.14 0.15 0.16 0.18 0.20 0.24 0.24 0.24 0.25 0.26 0.28 0.28 0.29 0.33 0.35 0.33 0.29 0.33 0.32 0.31 0.33 0.35 0.37 0.44 0.51 0.56 0.61 0.70 0.79 0.80 0.73 0.71 0.72 0.76 0.81 0.81 0.81
0.12 0.11 0.12 0.12 0.13 0.14 0.15 0.15 0.16 0.17 0.20 0.21 0.22 0.22 0.22 0.22 0.25 0.27 0.27 0.27 0.32 0.34 0.30 0.29 0.27 0.26 0.27 0.32 0.40 0.43 0.51 0.57 0.59 0.61 0.66 0.70 0.72 0.76 0.80 0.79 0.77 0.80 0.82 0.84
0.14 0.13 0.13 0.13 0.12 0.13 0.16 0.17 0.16 0.16 0.17 0.19 0.21 0.21 0.20 0.20 0.24 0.28 0.30 0.30 0.28 0.28 0.28 0.31 0.28 0.30 0.34 0.42 0.46 0.47 0.54 0.61 0.64 0.67 0.70 0.75 0.77 0.78 0.82 0.85 0.85 0.86 0.90 0.92
0.14 0.14 0.13 0.13 0.13 0.13 0.15 0.14 0.14 0.13 0.13 0.15 0.17 0.19 0.21 0.21 0.22 0.25 0.29 0.34 0.35 0.37 0.33 0.32 0.33 0.42 0.51 0.59 0.52 0.50 0.52 0.58 0.65 0.69 0.75 0.82 0.86 0.85 0.83 0.86 0.89 0.90 0.91 0.93
0.16 0.16 0.16 0.16 0.17 0.17 0.14 0.14 0.14 0.15 0.15 0.16 0.19 0.23 0.28 0.29 0.29 0.32 0.36 0.38 0.39 0.43 0.40 0.41 0.49 0.55 0.60 0.56 0.53 0.51 0.51 0.54 0.60 0.65 0.71 0.80 0.87 0.89 0.87 0.85 0.87 0.90 0.92 0.92
0.21 0.20 0.21 0.21 0.22 0.21 0.20 0.18 0.18 0.18 0.18 0.19 0.22 0.25 0.30 0.35 0.36 0.37 0.39 0.44 0.47 0.48 0.43 0.45 0.53 0.58 0.60 0.51 0.48 0.49 0.52 0.55 0.60 0.65 0.68 0.74 0.80 0.84 0.88 0.90 0.93 0.97 1.00 1.03
0.25 0.26 0.28 0.29 0.30 0.30 0.29 0.26 0.25 0.25 0.26 0.26 0.27 0.28 0.31 0.34 0.39 0.41 0.42 0.43 0.47 0.49 0.44 0.45 0.51 0.53 0.48 0.46 0.48 0.50 0.51 0.55 0.62 0.65 0.66 0.71 0.76 0.82 0.87 0.88 0.95 1.03 1.09 1.12
0.28 0.29 0.32 0.34 0.33 0.33 0.33 0.34 0.35 0.35 0.35 0.35 0.33 0.33 0.33 0.33 0.35 0.38 0.41 0.44 0.47 0.51 0.47 0.44 0.43 0.44 0.43 0.46 0.47 0.49 0.49 0.51 0.55 0.58 0.61 0.67 0.71 0.75 0.81 0.84 0.88 0.97 1.07 1.11
0.37 0.34 0.33 0.36 0.37 0.36 0.36 0.40 0.45 0.46 0.47 0.48 0.48 0.44 0.41 0.40 0.39 0.38 0.37 0.38 0.40 0.44 0.48 0.48 0.46 0.47 0.49 0.49 0.48 0.48 0.50 0.53 0.56 0.60 0.65 0.70 0.75 0.82 0.88 0.91 0.93 0.98 1.03 1.05